Weather History for KGGE - January, 2013

Change the Weather History Date:

Thursday, January 3, 2013

  Actual Average (KHYW) Record (KHYW)
Temperature  
Mean Temperature 44 °F -  
Max Temperature 50 °F 55 °F - (-1)
Min Temperature 37 °F 35 °F - (-1)
Degree Days  
Heating Degree Days 20    
Moisture  
Dew Point 45 °F    
Average Humidity 100    
Maximum Humidity 100    
Minimum Humidity 93    
Precipitation  
Precipitation 0.00 in - - ()
Sea Level Pressure  
Sea Level Pressure 30.19 in    
Wind  
Wind Speed 5 mph (NNE)    
Max Wind Speed 8 mph    
Max Gust Speed -    
Visibility 7 miles    
Events Rain    
Averages and records for this station are not official NWS values.
T = Trace of Precipitation, MM = Missing Value Source: NWS Daily Summary

Daily Weather History Graph

Daily Weather History Graph

Search for Another Location

Airport or City:

Trip Planner

Search our weather history database for the weather conditions in past years. The results will help you decide how hot, cold, wet, or windy it might be!

Date:

Astronomy

Jan. 03, 2013 Rise Set
Actual Time 7:21 AM EST 5:22 PM EST
Civil Twilight 6:54 AM EST 5:49 PM EST
Nautical Twilight 6:23 AM EST 6:20 PM EST
Astronomical Twilight 5:53 AM EST 6:50 PM EST
Moon 11:34 PM EST (1/3) 10:51 AM EST (1/3)
Length of Visible Light 10h 55m
Length of Day
10h 01m
Waning Gibbous, 65% of the Moon is Illuminated
Jan 3
Waning Gibbous
Jan 4
Last Quarter
Jan 11
New
Jan 18
First Quarter
Jan 26
Full

Hourly Weather History & Observations

Time (EST) Temp. Windchill Dew Point Humidity Pressure Visibility Wind Dir Wind Speed Gust Speed Precip Events Conditions
12:15 AM 50.0 °F - 50.0 °F 100% 30.15 in 10.0 mi ENE 6.9 mph - N/A   Overcast
12:35 AM 48.2 °F - 48.2 °F 100% 30.14 in 10.0 mi ENE 8.1 mph - N/A   Overcast
12:55 AM 48.2 °F - 48.2 °F 100% 30.13 in 10.0 mi ENE 4.6 mph - N/A   Overcast
1:15 AM 48.2 °F - 48.2 °F 100% 30.14 in 10.0 mi NE 8.1 mph - N/A   Overcast
1:35 AM 48.2 °F - 48.2 °F 100% 30.12 in 10.0 mi NE 6.9 mph - N/A   Overcast
2:15 AM 46.4 °F 42.9 °F 46.4 °F 100% 30.11 in 10.0 mi ENE 6.9 mph - N/A   Overcast
2:35 AM 46.4 °F 42.4 °F 46.4 °F 100% 30.13 in 10.0 mi NE 8.1 mph - N/A   Overcast
2:55 AM 46.4 °F 44.3 °F 46.4 °F 100% 30.13 in 10.0 mi ENE 4.6 mph - N/A   Overcast
3:15 AM 46.4 °F 42.9 °F 46.4 °F 100% 30.12 in 10.0 mi ENE 6.9 mph - N/A   Overcast
3:35 AM 46.4 °F 42.9 °F 46.4 °F 100% 30.13 in 10.0 mi NE 6.9 mph - N/A   Overcast
3:55 AM 46.4 °F 42.4 °F 46.4 °F 100% 30.14 in 10.0 mi NE 8.1 mph - N/A   Overcast
4:15 AM 46.4 °F 43.5 °F 46.4 °F 100% 30.13 in 10.0 mi NE 5.8 mph - N/A   Overcast
4:35 AM 46.4 °F 42.4 °F 44.6 °F 93% 30.14 in 10.0 mi NNE 8.1 mph - N/A   Overcast
4:55 AM 46.4 °F 42.9 °F 44.6 °F 93% 30.15 in 10.0 mi NNE 6.9 mph - N/A   Overcast
5:15 AM 44.6 °F 40.7 °F 44.6 °F 100% 30.14 in 10.0 mi NNE 6.9 mph - N/A   Overcast
5:35 AM 44.6 °F 40.7 °F 44.6 °F 100% 30.14 in 10.0 mi NE 6.9 mph - N/A   Overcast
5:55 AM 44.6 °F 42.2 °F 44.6 °F 100% 30.15 in 10.0 mi NE 4.6 mph - N/A Rain Light Rain
6:15 AM 44.6 °F 43.1 °F 44.6 °F 100% 30.16 in 10.0 mi NNE 3.5 mph - N/A   Overcast
6:35 AM 44.6 °F 41.4 °F 44.6 °F 100% 30.16 in 10.0 mi NE 5.8 mph - N/A   Overcast
6:55 AM 44.6 °F 40.7 °F 44.6 °F 100% 30.16 in 10.0 mi NNE 6.9 mph - N/A   Overcast
7:15 AM 44.6 °F 41.4 °F 44.6 °F 100% 30.18 in 10.0 mi North 5.8 mph - N/A   Overcast
7:35 AM 44.6 °F 43.1 °F 44.6 °F 100% 30.18 in 10.0 mi NE 3.5 mph - N/A Rain Light Rain
7:55 AM 44.6 °F 42.2 °F 44.6 °F 100% 30.19 in 10.0 mi NNE 4.6 mph - N/A Rain Rain
8:15 AM 44.6 °F 43.1 °F 44.6 °F 100% 30.19 in 7.0 mi NE 3.5 mph - N/A Rain Light Rain
8:35 AM 44.6 °F - 44.6 °F 100% 30.19 in 7.0 mi Calm Calm - N/A   Drizzle
8:55 AM 44.6 °F - 44.6 °F 100% 30.19 in 7.0 mi Calm Calm - N/A   Drizzle
9:15 AM 44.6 °F 42.2 °F 44.6 °F 100% 30.19 in 7.0 mi NE 4.6 mph - N/A   Drizzle
9:35 AM 44.6 °F 42.2 °F 44.6 °F 100% 30.19 in 7.0 mi NE 4.6 mph - N/A   Drizzle
9:55 AM 44.6 °F 42.2 °F 44.6 °F 100% 30.19 in 5.0 mi NNE 4.6 mph - N/A Rain Light Rain
10:15 AM 44.6 °F 40.2 °F 44.6 °F 100% 30.19 in 4.0 mi NNE 8.1 mph - N/A Rain Rain
10:35 AM 44.6 °F 40.7 °F 44.6 °F 100% 30.19 in 5.0 mi NNE 6.9 mph - N/A Rain Rain
10:55 AM 44.6 °F 41.4 °F 44.6 °F 100% 30.19 in 5.0 mi NE 5.8 mph - N/A Rain Rain
11:15 AM 44.6 °F 42.2 °F 44.6 °F 100% 30.20 in 5.0 mi NE 4.6 mph - N/A Rain Light Rain
11:35 AM 44.6 °F 42.2 °F 44.6 °F 100% 30.19 in 5.0 mi ENE 4.6 mph - N/A   Drizzle
11:55 AM 44.6 °F - 44.6 °F 100% 30.19 in 5.0 mi Calm Calm - N/A Rain Rain
12:15 PM 46.4 °F - 46.4 °F 100% 30.19 in 5.0 mi Calm Calm - N/A Rain Rain
12:35 PM 46.4 °F - 46.4 °F 100% 30.17 in 5.0 mi Calm Calm - N/A Rain Rain
12:55 PM 46.4 °F - 46.4 °F 100% 30.17 in 5.0 mi Calm Calm - N/A Rain Light Rain
1:15 PM 46.4 °F - 46.4 °F 100% 30.16 in 7.0 mi Calm Calm - N/A   Light Drizzle
1:35 PM 46.4 °F - 46.4 °F 100% 30.16 in 7.0 mi Calm Calm - N/A Rain Light Rain
1:55 PM 46.4 °F 45.2 °F 46.4 °F 100% 30.15 in 7.0 mi North 3.5 mph - N/A   Light Drizzle
2:15 PM 46.4 °F 44.3 °F 46.4 °F 100% 30.15 in 5.0 mi North 4.6 mph - N/A Rain Light Rain
2:35 PM 46.4 °F 43.5 °F 46.4 °F 100% 30.15 in 3.0 mi North 5.8 mph - N/A Rain Light Rain
2:55 PM 46.4 °F - 46.4 °F 100% 30.15 in 4.0 mi Calm Calm - N/A Rain Light Rain
3:15 PM 46.4 °F - 46.4 °F 100% 30.16 in 5.0 mi Calm Calm - N/A   Light Drizzle
3:35 PM 46.4 °F 43.5 °F 46.4 °F 100% 30.18 in 5.0 mi NNW 5.8 mph - N/A Rain Light Rain
3:55 PM 46.4 °F - 46.4 °F 100% 30.17 in 7.0 mi Calm Calm - N/A   Overcast
4:15 PM 46.4 °F - 46.4 °F 100% 30.16 in 5.0 mi Calm Calm - N/A   Overcast
4:35 PM 44.6 °F - 44.6 °F 100% 30.17 in 5.0 mi Calm Calm - N/A   Overcast
4:55 PM 44.6 °F - 44.6 °F 100% 30.17 in 5.0 mi Calm Calm - N/A   Overcast
5:35 PM 44.6 °F 42.2 °F 44.6 °F 100% 30.19 in 5.0 mi North 4.6 mph - N/A   Overcast
5:55 PM 44.6 °F 40.2 °F 44.6 °F 100% 30.22 in 4.0 mi NNW 8.1 mph - N/A   Overcast
6:15 PM 44.6 °F 43.1 °F 44.6 °F 100% 30.20 in 4.0 mi NNE 3.5 mph - N/A   Overcast
6:35 PM 44.6 °F 41.4 °F 44.6 °F 100% 30.23 in 4.0 mi NNW 5.8 mph - N/A   Overcast
6:55 PM 44.6 °F 40.7 °F 44.6 °F 100% 30.23 in 4.0 mi North 6.9 mph - N/A   Overcast
7:15 PM 44.6 °F 40.2 °F 44.6 °F 100% 30.24 in 4.0 mi North 8.1 mph - N/A   Overcast
7:35 PM 44.6 °F 42.2 °F 44.6 °F 100% 30.24 in 2.0 mi North 4.6 mph - N/A   Overcast
7:55 PM 42.8 °F 39.3 °F 42.8 °F 100% 30.24 in 4.0 mi North 5.8 mph - N/A   Overcast
8:15 PM 42.8 °F 41.1 °F 42.8 °F 100% 30.26 in 4.0 mi North 3.5 mph - N/A   Overcast
8:35 PM 42.8 °F 38.0 °F 42.8 °F 100% 30.26 in 5.0 mi North 8.1 mph - N/A   Overcast
8:55 PM 42.8 °F 40.1 °F 42.8 °F 100% 30.27 in 5.0 mi NNW 4.6 mph - N/A   Overcast
9:15 PM 42.8 °F 40.1 °F 42.8 °F 100% 30.27 in 7.0 mi NW 4.6 mph - N/A   Overcast
9:35 PM 42.8 °F 40.1 °F 42.8 °F 100% 30.27 in 5.0 mi NNW 4.6 mph - N/A   Overcast
9:55 PM 42.8 °F 39.3 °F 42.8 °F 100% 30.27 in 7.0 mi North 5.8 mph - N/A   Overcast
10:15 PM 42.8 °F 38.0 °F 42.8 °F 100% 30.28 in 7.0 mi NNW 8.1 mph - N/A   Overcast
10:35 PM 42.8 °F 39.3 °F 42.8 °F 100% 30.28 in 7.0 mi North 5.8 mph - N/A   Mostly Cloudy
10:55 PM 41.0 °F 39.0 °F 41.0 °F 100% 30.28 in 5.0 mi North 3.5 mph - N/A   Scattered Clouds
11:15 PM 41.0 °F 39.0 °F 41.0 °F 100% 30.29 in 5.0 mi NNW 3.5 mph - N/A   Clear
11:35 PM 39.2 °F 37.0 °F 39.2 °F 100% 30.28 in 4.0 mi NNW 3.5 mph - N/A   Clear
11:55 PM 37.4 °F 33.8 °F 37.4 °F 100% 30.29 in 3.0 mi NNW 4.6 mph - N/A   Clear